1500642000.86,13875,22.13,74258.8,20.59,7.45,5.27,0,*4D
1500642002.07,13876,22.13,74258.3,20.55,8.27,6.11,0,*4F
1500642003.28,13877,22.13,74262.3,20.59,8.65,6.73,0,*40
1500642004.53,13878,22.13,74258.5,20.59,8.29,6.43,0,*44
1500642005.71,13879,22.13,74258.3,20.63,8.05,6.29,0,*4E
1500642006.91,13880,22.13,74258.8,20.59,7.33,5.63,0,*46
1500642008.12,13881,22.13,74256.5,20.59,7.33,5.71,0,*44
1500642009.34,13882,22.13,74258.0,20.55,7.33,5.89,0,*4C
1500642010.56,13883,22.13,74256.3,20.57,6.33,4.75,0,*4C
1500642011.77,13884,22.13,74256.8,20.55,6.29,4.85,0,*4D
1500642013.03,13885,22.13,74258.3,20.55,6.65,5.27,0,*4D
1500642014.26,13886,22.13,74256.3,20.51,6.07,4.75,0,*48
1500642015.5,13887,22.13,74258.0,20.51,6.25,5.05,0,*4F
1500642016.72,13888,22.13,74258.0,20.53,6.03,4.93,0,*48
1500642017.93,13889,22.13,74260.5,20.47,6.33,5.37,0,*40
1500642019.14,13890,22.13,74258.3,20.49,6.39,5.41,0,*4D
1500642020.35,13891,22.13,74262.5,20.47,6.25,5.45,0,*4B
1500642021.57,13892,22.13,74258.8,20.47,6.21,5.41,0,*48
1500642022.83,13893,22.13,74258.3,20.47,5.73,4.93,0,*43
1500642024.01,13894,22.13,74258.8,20.45,5.95,5.29,0,*4E
1500642025.27,13895,22.13,74258.5,20.43,5.93,5.27,0,*41
1500642026.47,13896,22.13,74262.5,20.43,5.59,4.81,0,*49
1500642027.7,13897,22.13,74258.3,20.43,5.93,5.33,0,*46
1500642028.97,13898,22.13,74260.0,20.39,6.13,5.55,0,*4F
1500642030.18,13899,22.13,74260.8,20.37,5.67,4.97,0,*4F
1500642031.38,13900,22.13,74260.8,20.37,5.01,4.49,0,*4D
1500642032.62,13901,22.13,74262.0,20.35,5.55,5.07,0,*44
1500642033.83,13902,22.13,74260.0,20.33,5.37,4.93,0,*49
1500642035.06,13903,22.13,74258.0,20.31,5.73,5.37,0,*45
1500642036.24,13904,22.13,74256.8,20.29,5.33,4.85,0,*47
1500642037.42,13905,22.13,74258.8,20.27,4.85,4.45,0,*48
1500642038.63,13906,22.13,74260.3,20.25,6.07,5.71,0,*47
1500642039.86,13907,22.13,74260.0,20.25,5.63,5.27,0,*44
1500642041.06,13908,22.13,74258.0,20.25,5.95,5.63,0,*42
1500642042.32,13909,22.13,74262.3,20.21,6.13,5.89,0,*4E
1500642043.55,13910,22.13,74258.8,20.21,6.17,6.03,0,*43
1500642044.81,13911,22.13,74262.0,20.21,6.13,5.81,0,*4F
1500642046.07,13912,22.13,74260.8,20.17,6.73,6.35,0,*43
1500642047.28,13913,22.13,74262.5,20.15,6.57,6.25,0,*47
1500642048.52,13914,22.13,74260.8,20.15,5.85,5.55,0,*48
1500642049.74,13915,22.13,74258.0,20.13,5.51,5.29,0,*4D
1500642050.95,13916,22.13,74260.8,20.11,5.85,5.71,0,*48
1500642052.18,13917,22.13,74262.5,20.09,5.81,5.71,0,*44
1500642053.38,13918,22.13,74260.5,20.07,6.11,6.13,0,*48
1500642054.57,13919,22.13,74262.8,20.07,5.99,5.99,0,*4B
1500642055.77,13920,22.13,74260.0,20.03,5.45,5.27,0,*41
1500642056.95,13921,22.13,74262.5,20.03,5.71,5.59,0,*4E
1500642058.13,13922,22.13,74262.3,19.99,5.45,5.33,0,*4F
1500642059.31,13923,22.13,74262.3,19.95,6.07,6.07,0,*43
1500642060.51,13924,22.13,74264.8,19.95,6.07,5.89,0,*41
1500642061.72,13925,22.13,74266.5,19.93,6.33,6.21,0,*40
1500642062.95,13926,22.13,74262.5,19.91,5.93,5.81,0,*41
1500642064.2,13927,22.13,74262.3,19.89,5.77,5.81,0,*43
1500642065.46,13928,22.13,74264.0,19.89,5.93,5.81,0,*46
1500642066.64,13929,22.13,74264.0,19.87,5.59,5.59,0,*4A
1500642067.84,13930,22.13,74264.5,19.87,6.11,6.13,0,*40
1500642069.08,13931,22.13,74260.5,19.85,6.25,6.43,0,*41
1500642070.32,13932,22.13,74260.8,19.81,6.25,6.51,0,*45
1500642071.58,13933,22.13,74262.5,19.81,6.57,6.87,0,*4A
1500642072.76,13934,22.13,74264.0,19.79,6.79,6.97,0,*47
1500642073.99,13935,22.13,74264.3,19.81,6.69,6.93,0,*44
1500642075.22,13936,22.13,74262.5,19.79,6.57,6.87,0,*48
1500642076.44,13937,22.13,74262.5,19.79,6.51,6.73,0,*44
1500642077.65,13938,22.13,74266.3,19.77,5.63,5.95,0,*4C
1500642078.85,13939,22.13,74264.5,19.71,5.81,6.21,0,*4B
1500642080.06,13940,22.13,74262.3,19.71,6.11,6.51,0,*48
1500642081.28,13941,22.13,74264.0,19.69,6.29,6.75,0,*4D
1500642082.49,13942,22.13,74262.3,19.67,6.25,6.65,0,*4D
1500642083.7,13943,22.13,74262.5,19.67,6.33,6.91,0,*40
1500642084.91,13944,22.13,74266.0,19.65,5.99,6.79,0,*40
1500642086.16,13945,22.13,74264.0,19.63,5.93,6.69,0,*4C
1500642087.39,13946,22.13,74262.5,19.63,5.99,6.91,0,*42
1500642088.61,13947,22.19,74266.3,19.59,5.19,6.13,0,*48
1500642089.81,13948,22.13,74260.8,19.57,5.33,6.43,0,*44
1500642091.04,13949,22.13,74260.3,19.55,5.37,6.43,0,*43
1500642092.25,13950,22.13,74262.5,19.49,5.67,6.87,0,*4B
1500642093.45,13951,22.13,74262.5,19.53,5.95,7.19,0,*4A
1500642094.66,13952,22.13,74260.8,19.49,5.93,7.09,0,*45
1500642095.9,13953,22.13,74262.3,19.45,5.73,6.91,0,*46
1500642097.12,13954,22.13,74262.0,19.45,5.77,6.91,0,*45
1500642098.35,13955,22.13,74262.5,19.43,5.63,6.87,0,*40
1500642099.57,13956,22.13,74262.5,19.41,5.95,7.19,0,*4E
1500642100.76,13957,22.19,74264.5,19.37,6.25,7.37,0,*4A
1500642101.97,13958,22.13,74266.3,19.37,7.29,8.41,0,*46
1500642103.18,13959,22.13,74264.8,19.37,7.37,8.37,0,*49
1500642104.38,13960,22.13,74262.3,19.37,6.69,7.51,0,*46
1500642105.64,13961,22.13,74264.8,19.35,6.87,7.65,0,*42
1500642106.88,13962,22.13,74264.8,19.33,7.61,8.33,0,*42
1500642108.11,13963,22.13,74266.3,19.33,7.87,8.33,0,*4B
1500642109.32,13964,22.13,74264.8,19.33,7.19,7.51,0,*40
1500642110.54,13965,22.13,74266.8,19.33,7.23,7.51,0,*48
1500642111.74,13966,22.13,74266.3,19.31,7.23,7.41,0,*48
1500642112.92,13967,22.13,74266.5,19.27,7.59,7.51,0,*42
1500642114.15,13968,22.13,74264.8,19.31,7.77,7.61,0,*45
1500642115.38,13969,22.13,74266.5,19.27,6.61,6.39,0,*49
1500642116.56,13970,22.13,74266.0,19.23,6.33,5.95,0,*47
1500642117.79,13971,22.13,74264.8,19.21,6.53,6.03,0,*4E
1500642119.02,13972,22.13,74264.3,19.19,6.73,6.13,0,*45
1500642120.22,13973,22.13,74260.3,19.19,7.51,6.91,0,*4F
1500642121.48,13974,22.13,74264.5,19.17,7.23,6.53,0,*4D
1500642122.65,13975,22.13,74266.0,19.15,7.55,6.75,0,*4B
1500642123.85,13976,22.13,74266.0,19.15,7.37,6.65,0,*4D
1500642125.11,13977,22.13,74264.3,19.13,7.23,6.43,0,*4B
1500642126.31,13978,22.13,74264.3,19.11,7.29,6.39,0,*41
1500642127.51,13979,22.19,74266.0,19.11,7.41,6.61,0,*43
1500642128.72,13980,22.19,74266.8,19.11,7.09,6.35,0,*48
1500642129.95,13981,22.13,74266.3,19.11,7.27,6.39,0,*49
1500642131.14,13982,22.13,74266.3,19.07,6.79,5.99,0,*4E
1500642132.35,13983,22.13,74266.8,19.07,7.33,6.47,0,*40
1500642133.57,13984,22.13,74266.5,19.03,7.65,6.73,0,*47
1500642134.77,13985,22.19,74266.8,19.03,7.97,7.11,0,*4E
1500642135.97,13986,22.19,74266.5,19.03,7.97,7.19,0,*45
1500642137.18,13987,22.19,74266.3,19.03,8.13,7.33,0,*4F
1500642138.41,13988,22.13,74264.0,19.01,7.95,7.09,0,*4A
1500642139.63,13989,22.13,74264.0,19.01,7.87,7.05,0,*44
1500642140.84,13990,22.19,74270.0,19.03,8.33,7.41,0,*4E
1500642142.07,13991,22.19,74266.3,19.01,7.87,6.97,0,*47
1500642143.3,13992,22.19,74264.8,19.01,7.37,6.51,0,*45
1500642144.53,13993,22.19,74270.8,18.99,7.55,6.61,0,*43
1500642145.71,13994,22.13,74266.8,18.97,7.79,6.93,0,*49
1500642146.94,13995,22.13,74264.5,18.97,7.61,6.73,0,*4F
1500642148.12,13996,22.13,74264.3,18.97,8.19,7.33,0,*49
1500642149.33,13997,22.13,74266.3,18.97,8.37,7.51,0,*40
1500642150.54,13998,22.19,74264.8,18.97,8.27,7.47,0,*49
1500642151.74,13999,22.19,74266.5,18.97,7.37,6.53,0,*42
1500642152.95,14000,22.13,74264.5,18.93,7.55,6.65,0,*49
1500642154.16,14001,22.19,74264.0,18.95,8.15,7.37,0,*43
1500642155.36,14002,22.13,74266.0,18.93,8.01,7.23,0,*46
1500642156.54,14003,22.13,74264.5,18.93,8.15,7.45,0,*42
1500642157.8,14004,22.19,74264.3,18.95,8.51,7.69,0,*4D
1500642159.04,14005,22.13,74266.5,18.95,8.27,7.47,0,*41
1500642160.23,14006,22.19,74264.0,18.93,7.87,7.01,0,*43
1500642161.42,14007,22.19,74266.0,18.93,8.09,7.29,0,*41
1500642162.62,14008,22.13,74264.0,18.93,8.05,7.23,0,*48
1500642163.84,14009,22.13,74264.0,18.91,7.87,7.05,0,*4A
1500642165.07,14010,22.19,74268.3,18.91,7.83,6.97,0,*4C
1500642166.28,14011,22.13,74266.3,18.93,8.65,7.69,0,*48
1500642167.48,14012,22.13,74266.5,18.91,8.45,7.51,0,*40
1500642168.69,14013,22.13,74264.8,18.89,7.73,6.83,0,*4C
1500642169.92,14014,22.19,74268.0,18.91,7.55,6.65,0,*4E
1500642171.12,14015,22.19,74264.3,18.89,7.91,7.01,0,*4D
1500642172.33,14016,22.13,74264.8,18.89,8.19,7.15,0,*44
1500642173.54,14017,22.19,74264.5,18.89,7.95,7.01,0,*4B
1500642174.75,14018,22.13,74264.5,18.89,7.23,6.33,0,*49
1500642175.99,14019,22.19,74266.5,18.87,7.23,6.11,0,*46
1500642177.2,14020,22.13,74264.3,18.85,7.55,6.53,0,*49
1500642178.4,14021,22.13,74264.0,18.85,7.59,6.53,0,*44
1500642179.61,14022,22.19,74266.8,18.81,7.95,6.93,0,*4F
1500642180.79,14023,22.13,74266.3,18.81,8.01,7.05,0,*42
1500642182.02,14024,22.19,74270.0,18.79,8.13,7.05,0,*41
1500642183.2,14025,22.13,74268.3,18.81,8.19,7.05,0,*4D
1500642184.44,14026,22.19,74270.8,18.79,8.13,7.09,0,*4F
1500642185.67,14027,22.19,74268.3,18.79,8.51,7.41,0,*44
1500642186.9,14028,22.13,74264.5,18.81,8.41,7.23,0,*49
1500642188.16,14029,22.19,74270.5,18.79,8.41,7.23,0,*4F
1500642189.39,14030,22.19,74268.3,18.79,8.75,7.45,0,*40
1500642190.62,14031,22.13,74264.8,18.79,8.33,7.09,0,*4B
1500642191.88,14032,22.13,74264.0,18.79,8.97,7.65,0,*4C
1500642193.09,14033,22.13,74266.0,18.79,8.69,7.29,0,*44
1500642194.32,14034,22.13,74266.3,18.79,8.97,7.55,0,*49
1500642195.55,14035,22.19,74270.8,18.79,8.65,7.19,0,*4D
1500642196.76,14036,22.13,74264.0,18.81,8.97,7.45,0,*4D
1500642198.0,14037,22.19,74266.5,18.79,8.97,7.51,0,*4E
1500642199.25,14038,22.13,74266.5,18.79,9.11,7.65,0,*49
1500642200.49,14039,22.13,74266.5,18.79,9.11,7.51,0,*4F
1500642201.69,14040,22.19,74266.3,18.81,8.75,7.09,0,*48
1500642202.93,14041,22.19,74270.0,18.79,8.79,7.23,0,*4A
1500642204.14,14042,22.13,74266.8,18.79,9.21,7.55,0,*44
1500642205.37,14043,22.13,74266.0,18.79,9.33,7.65,0,*45
1500642206.61,14044,22.19,74268.3,18.79,9.29,7.61,0,*4D
1500642207.82,14045,22.13,74268.3,18.81,9.11,7.29,0,*4C
1500642209.08,14046,22.19,74270.5,18.79,8.33,6.61,0,*44
1500642210.33,14047,22.13,74268.3,18.79,8.41,6.61,0,*40
1500642211.56,14048,22.19,74270.8,18.79,8.45,6.65,0,*4F
1500642212.76,14049,22.13,74270.0,18.77,8.65,6.87,0,*4E
1500642213.97,14050,22.13,74266.0,18.79,8.69,6.83,0,*40
1500642215.17,14051,22.19,74268.5,18.79,8.65,6.83,0,*4D
1500642216.43,14052,22.19,74270.8,18.79,8.13,6.17,0,*42
1500642217.63,14053,22.13,74268.8,18.75,8.05,6.07,0,*49
1500642218.82,14054,22.19,74270.3,18.77,8.27,6.33,0,*4B
1500642220.01,14055,22.19,74272.3,18.73,8.27,6.29,0,*45
1500642221.22,14056,22.13,74270.8,18.75,8.27,6.21,0,*48
1500642222.43,14057,22.13,74266.5,18.73,8.33,6.33,0,*49
1500642223.68,14058,22.19,74272.5,18.71,8.59,6.65,0,*4B
1500642224.89,14059,22.19,74270.0,18.75,8.83,6.75,0,*48
1500642226.08,14060,22.13,74268.3,18.73,8.83,6.75,0,*44
1500642227.28,14061,22.19,74268.3,18.73,9.11,6.97,0,*43
1500642228.49,14062,22.19,74268.8,18.73,8.93,6.79,0,*4B
1500642229.7,14063,22.19,74270.0,18.71,9.07,6.93,0,*40
1500642230.93,14064,22.19,74270.8,18.71,9.11,7.09,0,*42
1500642232.14,14065,22.13,74268.3,18.73,9.49,7.45,0,*44
1500642233.34,14066,22.13,74270.5,18.73,9.11,7.01,0,*4A
1500642234.54,14067,22.19,74270.8,18.73,8.69,6.61,0,*42
1500642235.77,14068,22.19,74268.5,18.71,9.01,6.93,0,*4D
1500642237.0,14069,22.19,74272.5,18.73,9.15,7.11,0,*40
1500642238.24,14070,22.19,74270.8,18.73,9.15,7.15,0,*4C
1500642239.47,14071,22.13,74270.8,18.73,9.11,7.27,0,*48
1500642240.68,14072,22.19,74272.0,18.71,9.33,7.45,0,*4D
1500642241.89,14073,22.13,74270.8,18.73,9.39,7.55,0,*45
1500642243.12,14074,22.19,74268.5,18.71,9.11,7.41,0,*4F
1500642244.32,14075,22.19,74270.8,18.73,9.11,7.45,0,*48
1500642245.55,14076,22.13,74264.0,18.73,9.11,7.47,0,*49
1500642246.79,14077,22.19,74268.5,18.71,9.11,7.55,0,*49
1500642248.0,14078,22.19,74272.0,18.71,9.07,7.55,0,*41
1500642249.24,14079,22.19,74268.3,18.73,9.11,7.69,0,*4A
1500642250.46,14080,22.19,74270.5,18.71,8.51,7.05,0,*41
1500642251.67,14081,22.19,74268.0,18.71,8.87,7.33,0,*4E
1500642252.88,14082,22.13,74266.5,18.69,8.97,7.51,0,*41
1500642254.09,14083,22.19,74270.8,18.67,9.07,7.61,0,*45
1500642255.27,14084,22.19,74270.8,18.69,9.29,7.97,0,*49
1500642256.46,14085,22.19,74266.3,18.69,9.33,7.97,0,*43
1500642257.67,14086,22.19,74270.8,18.69,9.61,8.27,0,*43
1500642258.87,14087,22.19,74270.5,18.69,9.63,8.41,0,*40
1500642260.06,14088,22.19,74268.0,18.69,9.43,8.15,0,*4C
1500642261.3,14089,22.19,74266.3,18.69,9.15,7.95,0,*49
1500642262.51,14090,22.19,74268.3,18.69,9.19,8.05,0,*4B
1500642263.75,14091,22.19,74270.5,18.69,9.49,8.37,0,*4E
1500642264.96,14092,22.13,74266.8,18.71,9.21,8.09,0,*47
1500642266.2,14093,22.19,74266.5,18.71,9.19,8.01,0,*45
1500642267.46,14094,22.13,74264.3,18.71,9.19,8.13,0,*41
1500642268.69,14095,22.13,74264.3,18.71,8.87,7.65,0,*48
1500642269.9,14096,22.19,74268.8,18.67,8.41,7.29,0,*4E
1500642271.14,14097,22.19,74270.0,18.69,8.75,7.69,0,*42
1500642272.35,14098,22.19,74268.8,18.67,9.49,8.61,0,*4A
1500642273.56,14099,22.13,74264.8,18.69,9.75,8.75,0,*4F
1500642274.74,14100,22.19,74270.3,18.69,9.71,8.83,0,*43
1500642275.95,14101,22.19,74266.3,18.69,9.95,8.97,0,*4D
1500642277.16,14102,22.19,74268.0,18.69,9.99,9.19,0,*45
1500642278.39,14103,22.19,74270.8,18.73,10.23,9.39,0,*74
1500642279.65,14104,22.19,74264.8,18.71,9.53,8.55,0,*45
1500642280.89,14105,22.19,74268.3,18.73,9.77,8.89,0,*41
1500642282.08,14106,22.19,74268.0,18.73,10.13,9.29,0,*73
1500642283.26,14107,22.19,74268.3,18.73,10.17,9.29,0,*76
1500642284.52,14108,22.13,74264.5,18.75,9.89,8.93,0,*40
1500642285.73,14109,22.19,74268.0,18.77,9.71,8.71,0,*48
1500642286.97,14110,22.19,74268.5,18.75,9.81,8.83,0,*40
1500642288.19,14111,22.13,74266.3,18.77,9.85,8.87,0,*43
1500642289.4,14112,22.19,74264.8,18.77,9.71,8.75,0,*46
1500642290.61,14113,22.19,74268.0,18.77,10.19,9.25,0,*75
1500642291.87,14114,22.19,74268.5,18.79,10.75,9.77,0,*71
1500642293.06,14115,22.19,74270.5,18.81,10.51,9.47,0,*72
1500642294.25,14116,22.13,74264.3,18.85,10.55,9.47,0,*71
1500642295.44,14117,22.19,74270.0,18.85,10.33,9.21,0,*70
1500642296.67,14118,22.13,74264.8,18.85,10.69,9.49,0,*7E
1500642297.91,14119,22.19,74270.0,18.87,10.47,9.19,0,*74
1500642299.11,14120,22.19,74270.5,18.89,11.09,9.75,0,*71
1500642300.37,14121,22.19,74270.5,18.91,11.41,10.09,0,*46
1500642301.56,14122,22.19,74270.0,18.93,11.51,9.99,0,*77
1500642302.75,14123,22.19,74268.3,18.97,11.65,10.05,0,*48
1500642304.01,14124,22.19,74268.8,18.99,11.71,9.89,0,*78
1500642305.27,14125,22.19,74268.8,19.01,11.71,9.89,0,*79
1500642306.46,14126,22.13,74270.5,19.03,11.65,9.71,0,*7A
1500642307.72,14127,22.19,74274.0,19.09,11.67,9.53,0,*73
1500642308.99,14128,22.19,74272.3,19.09,11.95,9.77,0,*77
1500642310.2,14129,22.19,74270.5,19.15,12.33,10.03,0,*4F
1500642311.48,14130,22.19,74270.5,19.17,12.67,10.23,0,*46
1500642312.7,14131,22.19,74270.5,19.21,12.73,10.09,0,*4F
1500642313.91,14132,22.13,74268.3,19.25,11.55,8.61,0,*78
1500642315.17,14133,22.19,74274.8,19.25,11.67,8.59,0,*73
1500642316.38,14134,22.19,74274.8,19.31,11.27,8.01,0,*78
1500642317.64,14135,22.19,74274.0,19.35,11.31,7.83,0,*7F
1500642318.91,14136,22.19,74270.3,19.35,11.57,7.87,0,*78
1500642320.18,14137,22.13,74266.0,19.39,11.61,7.87,0,*70
1500642321.44,14138,22.19,74270.0,19.43,10.79,6.87,0,*7B
1500642322.7,14139,22.19,74268.5,19.43,9.57,5.27,0,*47
1500642323.96,14140,22.19,74274.3,19.43,9.39,5.01,0,*45
1500642325.17,14141,22.19,74270.8,19.45,9.39,4.81,0,*4B
1500642326.38,14142,22.19,74274.3,19.45,8.89,4.07,0,*4C
1500642327.61,14143,22.19,74268.8,19.45,8.37,3.19,0,*40
1500642328.81,14144,22.19,74270.3,19.45,7.65,2.31,0,*44
1500642330.04,14145,22.19,74270.8,19.45,8.55,3.37,0,*4E
1500642331.25,14146,22.19,74268.5,19.45,8.69,3.37,0,*42
1500642332.49,14147,22.19,74268.8,19.47,8.19,2.51,0,*47
1500642333.75,14148,22.19,74270.8,19.47,8.47,2.81,0,*4E
1500642335.0,14149,22.19,74270.5,19.47,8.29,2.59,0,*42
1500642336.21,14150,22.19,74270.0,19.49,7.77,1.79,0,*41
1500642337.43,14151,22.19,74266.8,19.49,5.93,-0.15,0,*5E
1500642338.69,14152,22.19,74264.8,19.47,6.57,0.55,0,*71
1500642339.92,14153,22.19,74264.8,19.49,7.19,1.21,0,*47
1500642341.13,14154,22.19,74264.5,19.49,6.93,0.71,0,*77
1500642342.31,14155,22.19,74266.8,19.49,6.29,0.01,0,*40
1500642343.5,14156,22.19,74264.0,19.53,5.63,-0.73,0,*5D
1500642344.71,14157,22.19,74264.5,19.49,5.33,-1.05,0,*62
1500642345.95,14158,22.13,74262.5,19.49,4.97,-1.47,0,*64
1500642347.19,14159,22.19,74262.8,19.47,3.81,-2.71,0,*6D
1500642348.41,14160,22.19,74266.3,19.45,4.45,-2.07,0,*6B
1500642349.62,14161,22.19,74262.5,19.45,3.89,-2.55,0,*6A
1500642350.84,14162,22.19,74262.8,19.47,3.93,-2.27,0,*65
1500642352.05,14163,22.19,74262.3,19.45,4.33,-1.83,0,*66
1500642353.29,14164,22.19,74262.5,19.45,4.79,-1.35,0,*62
1500642354.49,14165,22.19,74258.0,19.45,4.81,-1.09,0,*6B
1500642355.7,14166,22.19,74260.5,19.45,4.67,-1.25,0,*6E
1500642356.95,14167,22.19,74260.3,19.45,3.41,-2.67,0,*69
1500642358.21,14168,22.19,74256.5,19.43,2.43,-3.43,0,*64
1500642359.45,14169,22.19,74260.0,19.43,2.81,-2.95,0,*61
1500642360.72,14170,22.19,74262.8,19.43,3.41,-2.11,0,*68
1500642361.96,14171,22.19,74260.0,19.41,3.15,-2.59,0,*66
1500642363.22,14172,22.19,74260.5,19.39,2.25,-3.55,0,*65
1500642364.43,14173,22.13,74258.3,19.37,1.93,-3.83,0,*6F
1500642365.66,14174,22.19,74262.8,19.37,2.13,-3.63,0,*6D
1500642366.87,14175,22.19,74260.5,19.33,0.97,-4.77,0,*54
1500642368.08,14176,22.19,74260.8,19.27,0.79,-4.99,0,*52
1500642369.33,14177,22.19,74262.5,19.21,0.59,-5.19,0,*5E
1500642370.52,14178,22.19,74260.8,19.19,1.05,-4.53,0,*6D
1500642371.75,14179,22.19,74264.0,19.19,1.93,-3.51,0,*66
1500642373.01,14180,22.19,74264.5,19.17,1.97,-3.59,0,*62
1500642374.21,14181,22.19,74264.0,19.15,2.25,-3.23,0,*66
1500642375.41,14182,22.19,74268.3,19.15,2.51,-2.91,0,*6E
1500642376.65,14183,22.19,74264.3,19.13,1.37,-4.17,0,*62
1500642377.83,14184,22.19,74268.3,19.11,0.97,-4.45,0,*5B
1500642379.1,14185,22.19,74266.8,19.09,2.51,-2.75,0,*6E
1500642380.31,14186,22.19,74272.5,19.07,2.39,-2.83,0,*64
1500642381.56,14187,22.19,74274.0,19.09,1.29,-3.87,0,*6C
1500642382.75,14188,22.19,74266.5,19.03,1.01,-4.25,0,*6C
1500642383.99,14189,22.19,74268.3,19.01,0.87,-4.29,0,*5C
1500642385.21,14190,22.19,74270.8,18.97,-0.19,-5.27,0,*7F
1500642386.44,14191,22.19,74270.5,18.97,0.29,-4.69,0,*5B
1500642387.65,14192,22.19,74272.5,18.93,0.91,-3.95,0,*5B
1500642388.86,14193,22.19,74270.3,18.89,0.95,-3.79,0,*57
1500642390.1,14194,22.19,74270.0,18.91,0.87,-3.79,0,*5A
1500642391.32,14195,22.19,74270.0,18.87,1.41,-3.27,0,*6C
1500642392.56,14196,22.19,74268.5,18.87,1.17,-3.27,0,*6C
1500642393.78,14197,22.19,74268.3,18.85,1.01,-3.43,0,*6A
1500642395.03,14198,22.19,74270.8,18.79,0.95,-3.51,0,*59
1500642396.27,14199,22.19,74266.8,18.79,1.25,-3.15,0,*62
1500642397.49,14200,22.19,74268.3,18.77,1.21,-3.15,0,*6B
1500642398.71,14201,22.19,74270.0,18.75,1.01,-3.35,0,*68
1500642399.95,14202,22.19,74270.5,18.75,1.17,-3.11,0,*6A
1500642401.18,14203,22.19,74268.5,18.75,1.59,-2.79,0,*6E
1500642402.42,14204,22.19,74268.8,18.73,1.63,-2.71,0,*6E
1500642403.69,14205,22.19,74266.3,18.71,1.67,-2.71,0,*69
1500642404.93,14206,22.19,74264.3,18.71,2.05,-2.35,0,*6D
1500642406.14,14207,22.19,74268.3,18.67,1.93,-2.31,0,*63
1500642407.34,14208,22.19,74268.3,18.67,1.43,-2.91,0,*6B
1500642408.55,14209,22.19,74266.5,18.67,1.89,-2.39,0,*6E
1500642409.79,14210,22.19,74266.3,18.65,2.09,-2.31,0,*67
1500642411.02,14211,22.19,74268.3,18.63,2.47,-1.83,0,*60
1500642412.23,14212,22.19,74266.8,18.65,2.61,-1.59,0,*66
1500642413.44,14213,22.19,74264.0,18.63,2.69,-1.55,0,*65
1500642414.67,14214,22.19,74264.5,18.57,2.85,-1.25,0,*60
1500642415.88,14215,22.19,74266.0,18.55,2.59,-1.71,0,*63
1500642417.12,14216,22.19,74266.0,18.55,3.03,-1.09,0,*61
1500642418.3,14217,22.19,74266.8,18.55,3.29,-0.81,0,*59
1500642419.53,14218,22.19,74264.3,18.53,2.81,-1.29,0,*60
1500642420.76,14219,22.19,74266.3,18.53,3.03,-1.17,0,*67
1500642422.02,14220,22.19,74264.8,18.49,3.23,-0.89,0,*52
1500642423.25,14221,22.19,74266.0,18.49,3.49,-0.53,0,*58
1500642424.48,14222,22.19,74266.3,18.49,3.81,-0.27,0,*5C
1500642425.67,14223,22.19,74264.0,18.47,3.49,-0.61,0,*55
1500642426.91,14224,22.19,74262.5,18.45,3.67,-0.33,0,*5B
1500642428.13,14225,22.19,74264.5,18.45,4.23,0.29,0,*7B
1500642429.33,14226,22.19,74266.8,18.43,4.11,0.17,0,*72
1500642430.52,14227,22.19,74268.0,18.43,4.57,0.75,0,*75
1500642431.76,14228,22.19,74264.8,18.43,5.05,1.21,0,*4C
1500642432.99,14229,22.19,74264.0,18.41,4.45,0.59,0,*74
1500642434.21,14230,22.19,74264.3,18.41,4.53,0.71,0,*71
1500642435.47,14231,22.19,74266.3,18.41,5.05,1.21,0,*46
1500642436.7,14232,22.19,74266.8,18.37,4.67,1.05,0,*47
1500642437.9,14233,22.19,74264.5,18.35,4.85,1.01,0,*4C
1500642439.16,14234,22.19,74266.0,18.35,4.71,0.91,0,*78
1500642440.39,14235,22.19,74268.3,18.33,4.79,0.91,0,*77
1500642441.59,14236,22.19,74268.5,18.33,4.41,0.51,0,*73
1500642442.84,14237,22.19,74268.5,18.31,5.05,1.33,0,*44
1500642444.07,14238,22.19,74270.0,18.31,5.11,1.33,0,*4E
1500642445.3,14239,22.19,74268.3,18.27,5.11,1.29,0,*43
1500642446.5,14240,22.19,74270.0,18.29,4.97,0.97,0,*78
1500642447.71,14241,22.19,74270.3,18.27,5.27,1.41,0,*47
1500642448.95,14242,22.19,74266.0,18.25,5.93,2.01,0,*4E
1500642450.18,14243,22.19,74266.0,18.23,5.99,2.05,0,*47
1500642451.41,14244,22.19,74266.5,18.23,5.15,1.09,0,*4B
1500642452.64,14245,22.19,74268.8,18.23,5.07,0.91,0,*79
1500642453.9,14246,22.19,74268.3,18.19,4.97,0.71,0,*75
1500642455.12,14247,22.19,74270.8,18.19,4.57,0.25,0,*79
1500642456.33,14248,22.19,74274.0,18.13,3.19,-1.25,0,*6D
1500642457.54,14249,22.19,74270.8,18.09,4.31,0.01,0,*40
1500642458.74,14250,22.19,74270.8,18.09,5.15,0.87,0,*71
1500642459.95,14251,22.19,74268.5,18.05,5.33,0.91,0,*7F
1500642461.17,14252,22.19,74268.0,18.07,6.03,1.79,0,*49
1500642462.38,14253,22.19,74272.0,18.05,6.13,1.75,0,*47
1500642463.58,14254,22.19,74268.5,18.05,5.41,0.95,0,*7B
1500642464.82,14255,22.19,74268.3,18.01,5.81,1.43,0,*48
1500642466.06,14256,22.19,74270.8,18.01,6.29,2.09,0,*47
1500642467.28,14257,22.19,74268.3,18.01,6.61,2.31,0,*41
1500642468.5,14258,22.19,74268.0,18.01,5.45,1.13,0,*48
1500642469.76,14259,22.19,74270.3,17.97,6.13,2.05,0,*4D
1500642471.03,14260,22.19,74270.0,17.97,6.73,2.51,0,*40
1500642472.23,14261,22.19,74268.5,17.97,6.79,2.65,0,*4C
1500642473.44,14262,22.19,74268.5,17.95,7.01,3.03,0,*42
1500642474.65,14263,22.19,74270.3,17.91,6.73,2.65,0,*42
1500642475.87,14264,22.19,74268.0,17.91,6.53,2.59,0,*48
1500642477.08,14265,22.19,74266.5,17.95,6.87,2.95,0,*44
1500642478.25,14266,22.19,74264.0,17.91,7.41,3.59,0,*49
1500642479.49,14267,22.19,74268.0,17.97,7.69,3.93,0,*42
1500642480.66,14268,22.19,74268.3,17.91,7.79,4.19,0,*4F
1500642481.88,14269,22.19,74270.3,17.95,8.23,4.71,0,*44
1500642483.08,14270,22.19,74270.5,17.95,7.65,4.11,0,*47
1500642484.31,14271,22.19,74264.8,17.97,7.95,4.49,0,*46
1500642485.55,14272,22.19,74268.5,17.97,7.77,4.37,0,*40
1500642486.78,14273,22.19,74270.5,17.97,7.87,4.53,0,*4C
1500642487.99,14274,22.19,74270.5,17.97,8.45,5.19,0,*45
1500642489.22,14275,22.19,74270.0,17.97,8.05,4.79,0,*47
1500642490.45,14276,22.19,74268.8,17.99,6.51,3.03,0,*4F
1500642491.64,14277,22.19,74268.3,17.95,6.25,2.91,0,*4B
1500642492.88,14278,22.19,74268.8,17.95,6.35,3.07,0,*4B
1500642494.08,14279,22.19,74266.3,17.91,7.23,4.11,0,*48
1500642495.27,14280,22.19,74266.0,17.95,7.55,4.45,0,*4A
1500642496.44,14281,22.19,74268.8,17.91,7.79,4.81,0,*49
1500642497.67,14282,22.19,74266.5,17.91,7.69,4.79,0,*4C
1500642498.87,14283,22.19,74264.3,17.91,7.65,4.89,0,*4E
1500642500.1,14284,22.19,74266.5,17.95,7.73,5.05,0,*4F
1500642501.29,14285,22.19,74264.3,17.91,7.79,5.15,0,*41
1500642502.5,14286,22.19,74264.5,17.95,8.23,5.77,0,*42
1500642503.7,14287,22.19,74264.5,17.95,8.33,5.95,0,*4E
1500642504.91,14288,22.19,74264.3,17.95,8.15,5.89,0,*48
1500642506.09,14289,22.19,74264.5,17.99,8.19,5.95,0,*44
1500642507.32,14290,22.19,74264.8,17.95,8.47,6.35,0,*42
1500642508.58,14291,22.19,74268.0,17.97,8.51,6.51,0,*44
1500642509.8,14292,22.19,74264.8,18.01,8.75,6.93,0,*4F
1500642511.03,14293,22.19,74264.8,18.01,8.75,6.93,0,*4E
1500642512.23,14294,22.19,74264.0,17.99,8.47,6.83,0,*47
1500642513.47,14295,22.19,74266.8,18.01,8.33,6.61,0,*47
1500642514.68,14296,22.19,74266.5,18.03,7.69,5.95,0,*4E
1500642515.9,14297,22.19,74266.5,17.99,7.65,5.93,0,*49
1500642517.13,14298,22.19,74270.5,18.01,8.23,6.61,0,*4B
1500642518.33,14299,22.19,74268.5,17.99,8.01,6.43,0,*44
1500642519.55,14300,22.19,74266.8,17.97,8.37,6.83,0,*42
1500642520.81,14301,22.19,74268.3,18.01,7.91,6.39,0,*41